CW5917 Weather Reports


Display with metric or nautical units.
time (UTC)temp
F
wind
direction
speed
MPH
gust
MPH
rain 1hr
in
rain 24hr
in
rain mn
in
humidity
%
barometer
mb
20260905113033 71 348 3.0 6.0 0.00 0.02 0.01 96 1015.1
20260905112546 71 22 3.0 5.0 0.00 0.02 0.01 96 1014.9
20260905112023 71 28 1.0 4.0 0.00 0.02 0.01 96 1014.9
20260905111533 71 28 2.0 5.0 0.00 0.02 0.01 96 1014.9
20260905111026 71 31 3.0 5.0 0.00 0.02 0.01 96 1014.8
20260905110520 71 28 2.0 3.0 0.00 0.02 0.01 96 1014.6
20260905110032 71 28 1.0 3.0 0.00 0.02 0.01 96 1014.5
20260905105525 71 28 0.0 1.0 0.00 0.02 0.01 96 1014.4
20260905105022 71 28 0.0 1.0 0.00 0.02 0.01 96 1014.5
20260905104520 71 28 0.0 0.0 0.00 0.02 0.01 95 1014.4
20260905104032 71 28 0.0 0.0 0.00 0.02 0.01 95 1014.3
20260905103538 71 28 0.0 0.0 0.00 0.02 0.01 95 1014.3
20260905103035 71 28 0.0 0.0 0.00 0.02 0.01 95 1014.2
20260905102549 71 28 0.0 0.0 0.00 0.02 0.01 95 1014.3
20260905102023 71 28 0.0 0.0 0.00 0.02 0.01 95 1014.3
20260905101537 71 28 0.0 0.0 0.00 0.02 0.01 95 1014.4
20260905101031 71 28 0.0 1.0 0.00 0.02 0.01 95 1014.4
20260905100536 71 28 0.0 1.0 0.01 0.02 0.01 95 1014.5
20260905100022 71 28 0.0 2.0 0.01 0.02 0.01 95 1014.5
20260905095537 71 28 1.0 2.0 0.01 0.02 0.01 95 1014.4
20260905095034 71 28 0.0 0.0 0.01 0.02 0.01 95 1014.4
20260905094519 71 28 0.0 0.0 0.01 0.02 0.01 95 1014.3
20260905094017 71 28 0.0 0.0 0.01 0.02 0.01 95 1014.4
20260905093532 71 28 0.0 0.0 0.01 0.02 0.01 95 1014.4
20260905093050 72 28 0.0 0.0 0.01 0.02 0.01 95 1014.4
20260905092031 72 28 0.0 0.0 0.01 0.02 0.01 95 1014.4
20260905091533 72 28 0.0 0.0 0.01 0.02 0.01 95 1014.4
20260905091029 72 28 0.0 0.0 0.01 0.02 0.01 95 1014.4
20260905090526 72 28 0.0 0.0 0.00 0.01 0.00 95 1014.3
20260905090035 72 28 0.0 0.0 0.00 0.02 0.00 95 1014.4
20260905085521 72 28 0.0 0.0 0.00 0.02 0.00 95 1014.4
20260905085034 72 28 0.0 0.0 0.00 0.02 0.00 95 1014.5
20260905084531 72 28 0.0 0.0 0.00 0.02 0.00 95 1014.5
20260905084047 72 28 0.0 0.0 0.00 0.02 0.00 95 1014.6
20260905083523 72 28 0.0 0.0 0.00 0.02 0.00 95 1014.7
20260905083049 72 28 0.0 0.0 0.00 0.02 0.00 95 1014.8
20260905082523 72 28 0.0 0.0 0.00 0.02 0.00 95 1014.7
20260905082018 72 28 0.0 0.0 0.00 0.02 0.00 95 1014.7
20260905081526 72 28 0.0 0.0 0.00 0.02 0.00 95 1014.6
20260905081019 72 28 0.0 0.0 0.00 0.02 0.00 95 1014.6
20260905080535 72 28 0.0 0.0 0.00 0.02 0.00 95 1014.6
20260905080031 72 28 0.0 0.0 0.00 0.02 0.00 95 1014.6
20260905075525 72 28 0.0 2.0 0.00 0.02 0.00 95 1014.7
20260905075040 72 28 0.0 2.0 0.00 0.02 0.00 95 1014.6
20260905074528 72 28 1.0 5.0 0.00 0.02 0.00 95 1014.6
20260905074024 72 28 2.0 5.0 0.00 0.02 0.00 95 1014.5
20260905073536 72 46 2.0 4.0 0.00 0.02 0.00 95 1014.6
20260905073058 72 5 2.0 3.0 0.00 0.02 0.00 95 1014.6
20260905072531 72 5 1.0 3.0 0.00 0.02 0.00 95 1014.7
20260905072026 72 5 1.0 4.0 0.00 0.02 0.00 95 1014.6
20260905071532 72 5 0.0 4.0 0.00 0.02 0.00 95 1014.6
20260905071025 72 35 2.0 3.0 0.00 0.02 0.00 95 1014.8
20260905070521 72 341 2.0 3.0 0.00 0.02 0.00 95 1014.5
20260905070032 72 341 2.0 3.0 0.00 0.02 0.00 95 1014.5
20260905065547 72 341 1.0 3.0 0.00 0.02 0.00 95 1014.5
20260905065024 72 341 1.0 2.0 0.00 0.02 0.00 95 1014.5
20260905064528 72 341 0.0 1.0 0.00 0.02 0.00 94 1014.3
20260905064022 72 341 0.0 2.0 0.00 0.02 0.00 94 1014.3
20260905063519 72 341 1.0 3.0 0.00 0.02 0.00 94 1014.4
20260905063027 73 341 1.0 3.0 0.00 0.02 0.00 94 1014.4
20260905062544 73 173 0.0 0.0 0.00 0.02 0.00 95 1014.4
20260905062019 73 173 0.0 0.0 0.00 0.02 0.00 94 1014.3
20260905061534 74 173 0.0 0.0 0.00 0.02 0.00 95 1014.3
20260905061038 74 173 0.0 0.0 0.00 0.02 0.00 95 1014.3
20260905060532 73 173 0.0 0.0 0.00 0.02 0.00 95 1014.3
20260905060033 73 173 0.0 1.0 0.00 0.02 0.00 95 1014.3
20260905055528 73 173 0.0 3.0 0.00 0.02 0.00 95 1014.4
20260905055018 74 173 1.0 3.0 0.00 0.02 0.00 95 1014.4
20260905054536 74 44 0.0 3.0 0.00 0.02 0.00 95 1014.4
20260905054030 74 44 2.0 3.0 0.00 0.02 0.00 95 1014.4
20260905053526 74 44 0.0 1.0 0.00 0.02 0.00 95 1014.4
20260905053036 74 44 0.0 0.0 0.00 0.02 0.00 95 1014.5
20260905052521 74 44 0.0 0.0 0.00 0.02 0.00 95 1014.6
20260905052019 74 44 0.0 0.0 0.00 0.02 0.00 94 1014.5
20260905051521 74 44 0.0 0.0 0.00 0.02 0.00 94 1014.4
20260905051036 74 44 0.0 0.0 0.00 0.02 0.00 95 1014.5
20260905050532 74 44 0.0 0.0 0.00 0.02 0.00 95 1014.5
20260905050033 75 44 0.0 0.0 0.00 0.02 0.02 95 1014.4
20260905045524 75 44 0.0 0.0 0.00 0.02 0.02 95 1014.5
20260905045020 75 44 0.0 0.0 0.00 0.02 0.02 95 1014.5
20260905044528 75 44 0.0 1.0 0.00 0.02 0.02 95 1014.5
20260905044043 75 44 0.0 1.0 0.00 0.02 0.02 95 1014.6
20260905043518 75 44 0.0 1.0 0.00 0.02 0.02 95 1014.5
20260905043020 75 44 0.0 1.0 0.00 0.02 0.02 95 1014.4
20260905042556 75 44 0.0 1.0 0.00 0.02 0.02 95 1014.5
20260905042018 75 44 0.0 2.0 0.00 0.02 0.02 95 1014.5
20260905041538 75 44 0.0 2.0 0.00 0.02 0.02 94 1014.7
20260905041030 75 44 0.0 0.0 0.00 0.02 0.02 94 1014.7
20260905040524 75 44 0.0 0.0 0.00 0.02 0.02 95 1014.6
20260905040029 75 44 0.0 0.0 0.00 0.02 0.02 94 1014.6
20260905035523 75 44 0.0 0.0 0.00 0.02 0.02 94 1014.6
20260905035019 75 44 0.0 1.0 0.00 0.02 0.02 94 1014.4
20260905034526 76 44 0.0 2.0 0.00 0.02 0.02 94 1014.5
20260905034037 76 44 1.0 3.0 0.00 0.02 0.02 94 1014.5
20260905033519 76 44 1.0 2.0 0.00 0.02 0.02 94 1014.5
20260905033035 76 44 0.0 1.0 0.00 0.02 0.02 93 1014.4
20260905032533 77 44 0.0 2.0 0.00 0.02 0.02 93 1014.3
20260905032018 77 44 0.0 2.0 0.00 0.02 0.02 93 1014.2
20260905031546 77 44 1.0 3.0 0.00 0.02 0.02 93 1014.4
20260905031021 77 44 0.0 3.0 0.00 0.02 0.02 93 1014.4
20260905030530 77 44 0.0 5.0 0.00 0.02 0.02 93 1014.4
20260905030029 78 38 4.0 5.0 0.00 0.02 0.02 93 1014.7
20260905025523 77 21 3.0 5.0 0.00 0.02 0.02 93 1014.7
20260905025018 78 21 1.0 4.0 0.00 0.02 0.02 93 1014.5
20260905024519 78 20 2.0 4.0 0.00 0.02 0.02 93 1014.5
20260905024039 77 18 3.0 4.0 0.00 0.02 0.02 92 1014.5
20260905023535 77 5 0.0 0.0 0.00 0.02 0.02 92 1014.4
20260905023034 78 5 0.0 2.0 0.00 0.02 0.02 92 1014.3
20260905022529 78 5 1.0 2.0 0.00 0.02 0.02 91 1014.3
20260905022024 78 5 0.0 1.0 0.00 0.02 0.02 91 1014.4
20260905021526 79 5 0.0 4.0 0.00 0.02 0.02 91 1014.4
20260905021023 79 5 1.0 4.0 0.00 0.02 0.02 91 1014.4
20260905020517 79 5 1.0 5.0 0.00 0.02 0.02 90 1014.4
20260905020047 79 5 1.0 5.0 0.00 0.02 0.02 91 1014.4
20260905015523 79 5 0.0 2.0 0.00 0.02 0.02 90 1014.5
20260905015019 79 5 0.0 2.0 0.00 0.02 0.02 90 1014.4
20260905014527 79 5 0.0 1.0 0.00 0.02 0.02 89 1014.3
20260905014042 80 5 0.0 2.0 0.00 0.02 0.02 89 1014.4
20260905013536 80 5 1.0 2.0 0.00 0.02 0.02 89 1014.4
20260905013035 80 5 1.0 6.0 0.00 0.02 0.02 89 1014.3
20260905012531 80 5 2.0 6.0 0.00 0.02 0.02 89 1014.3
20260905012020 80 343 3.0 6.0 0.00 0.02 0.02 89 1014.2
20260905011538 80 5 3.0 5.0 0.00 0.02 0.02 89 1014.2
20260905011034 80 17 1.0 4.0 0.00 0.02 0.02 89 1014.0
20260905010531 80 17 0.0 4.0 0.00 0.02 0.02 89 1013.8
20260905010020 81 28 2.0 4.0 0.00 0.02 0.02 88 1013.7
20260905005535 81 318 0.0 4.0 0.00 0.02 0.02 88 1013.7
20260905005018 81 318 2.0 4.0 0.00 0.02 0.02 88 1013.7
20260905004537 81 318 3.0 4.0 0.00 0.02 0.02 88 1013.6
20260905004051 81 211 0.0 2.0 0.00 0.02 0.02 87 1013.4
20260905003524 82 211 0.0 3.0 0.00 0.02 0.02 87 1013.2
20260905003021 82 211 1.0 2.0 0.00 0.02 0.02 87 1013.2
20260905002534 82 211 1.0 2.0 0.00 0.02 0.02 87 1013.0
20260905002019 82 211 0.0 3.0 0.00 0.02 0.02 87 1012.9
20260905001529 82 211 1.0 4.0 0.00 0.02 0.02 86 1012.7
20260905001025 82 211 2.0 4.0 0.00 0.02 0.02 86 1012.6
20260905000521 82 211 3.0 5.0 0.00 0.02 0.02 86 1012.7
20260905000025 82 246 1.0 5.0 0.00 0.02 0.02 86 1012.8
20260904235521 82 209 2.0 5.0 0.00 0.02 0.02 85 1012.9
20260904235018 82 209 4.0 6.0 0.00 0.02 0.02 85 1012.8
20260904234537 83 209 4.0 6.0 0.00 0.02 0.02 85 1012.9
20260904234052 83 209 3.0 5.0 0.00 0.02 0.02 84 1012.7
20260904233526 83 209 4.0 5.0 0.00 0.02 0.02 83 1013.0
20260904233029 83 207 4.0 5.0 0.00 0.02 0.02 83 1013.1
20260904232526 84 250 3.0 4.0 0.00 0.02 0.02 82 1013.2
20260904232020 84 250 3.0 4.0 0.00 0.02 0.02 82 1013.2
20260904231539 84 250 3.0 4.0 0.00 0.02 0.02 82 1013.2
20260904231031 84 250 2.0 4.0 0.00 0.02 0.02 82 1013.2
20260904230520 84 250 1.0 5.0 0.00 0.02 0.02 83 1013.2
20260904230051 84 250 1.0 5.0 0.00 0.02 0.02 82 1013.2
20260904225525 84 249 3.0 7.0 0.00 0.02 0.02 82 1013.1
20260904225020 84 210 4.0 7.0 0.00 0.02 0.02 82 1012.9
20260904224536 84 201 4.0 8.0 0.00 0.02 0.02 81 1012.9
20260904224025 84 195 5.0 8.0 0.00 0.02 0.02 81 1012.9
20260904223520 84 234 5.0 9.0 0.00 0.02 0.02 80 1012.9
20260904223019 84 215 6.0 9.0 0.00 0.02 0.02 80 1012.9
20260904222534 84 193 6.0 10.0 0.00 0.02 0.02 80 1012.9
20260904222017 84 207 7.0 10.0 0.00 0.02 0.02 79 1012.8
20260904221527 85 216 4.0 9.0 0.00 0.02 0.02 79 1012.7
20260904221036 85 211 6.0 11.0 0.00 0.02 0.02 78 1012.7
20260904220532 85 208 7.0 12.0 0.00 0.02 0.02 78 1012.9
20260904220032 85 203 8.0 11.0 0.00 0.02 0.02 78 1012.9
20260904215524 85 225 6.0 12.0 0.00 0.02 0.02 77 1013.1
20260904215019 85 207 8.0 12.0 0.00 0.02 0.02 76 1013.1
20260904214553 86 215 9.0 16.0 0.00 0.02 0.02 76 1013.0
20260904214026 86 245 11.0 15.0 0.00 0.02 0.02 75 1013.0
20260904213542 86 202 9.0 14.0 0.00 0.02 0.02 75 1013.0
20260904213029 86 180 8.0 14.0 0.00 0.02 0.02 75 1013.1
20260904212523 87 213 10.0 14.0 0.00 0.02 0.02 74 1013.1
20260904212032 87 224 12.0 19.0 0.00 0.02 0.02 73 1013.1
20260904211552 87 224 9.0 19.0 0.00 0.02 0.02 73 1013.0
20260904211024 88 217 11.0 20.0 0.00 0.02 0.02 71 1013.0
20260904210523 88 195 13.0 20.0 0.00 0.02 0.02 70 1013.0
20260904210033 89 200 11.0 17.0 0.00 0.02 0.02 71 1013.1
20260904205544 89 193 9.0 17.0 0.00 0.02 0.02 71 1013.1
20260904205036 89 224 11.0 18.0 0.00 0.02 0.02 71 1013.1
20260904204534 89 233 10.0 17.0 0.00 0.02 0.02 72 1013.1
20260904204028 88 229 9.0 17.0 0.00 0.02 0.02 73 1013.1
20260904203521 88 216 9.0 16.0 0.00 0.02 0.02 74 1012.8
20260904203029 88 230 10.0 17.0 0.00 0.02 0.02 74 1012.8
20260904202520 88 239 10.0 14.0 0.00 0.02 0.02 74 1012.9
20260904202032 87 198 9.0 14.0 0.00 0.02 0.02 74 1012.8
20260904201532 87 191 10.0 19.0 0.00 0.02 0.02 75 1012.8
20260904201027 87 211 11.0 20.0 0.00 0.02 0.02 74 1013.0
20260904200522 86 212 12.0 17.0 0.00 0.02 0.02 74 1013.1
20260904200021 86 225 7.0 14.0 0.00 0.02 0.02 77 1013.1
20260904195531 86 224 10.0 17.0 0.00 0.02 0.02 77 1013.1
20260904195022 85 221 10.0 16.0 0.00 0.02 0.02 77 1013.4
20260904194520 85 192 10.0 13.0 0.00 0.02 0.02 77 1013.7
20260904194031 85 228 10.0 16.0 0.00 0.02 0.02 78 1013.8
20260904193524 85 199 8.0 16.0 0.00 0.02 0.02 79 1014.0
20260904193017 85 167 9.0 16.0 0.00 0.02 0.02 79 1014.0
20260904192533 84 190 11.0 16.0 0.00 0.02 0.02 78 1014.0
20260904192037 84 196 7.0 12.0 0.00 0.02 0.02 78 1014.2
20260904191524 84 225 9.0 12.0 0.00 0.02 0.02 81 1014.2
20260904191019 82 224 4.0 8.0 0.00 0.02 0.02 84 1014.2
20260904190533 82 173 6.0 8.0 0.00 0.02 0.02 85 1014.3
20260904190031 81 244 3.0 9.0 0.00 0.02 0.02 88 1014.4
20260904185537 80 228 6.0 9.0 0.00 0.02 0.02 87 1014.4
20260904185032 80 194 5.0 7.0 0.00 0.02 0.02 87 1014.3
20260904184531 79 207 4.0 7.0 0.00 0.02 0.02 88 1014.3
20260904184045 79 205 4.0 7.0 0.00 0.02 0.02 89 1014.3
20260904183517 78 200 4.0 7.0 0.00 0.02 0.02 89 1014.2
20260904183017 78 184 3.0 9.0 0.00 0.02 0.02 89 1014.3
20260904182534 78 134 4.0 11.0 0.00 0.02 0.02 88 1013.9
20260904182018 78 171 6.0 14.0 0.00 0.02 0.02 87 1014.2
20260904181527 77 171 6.0 14.0 0.00 0.02 0.02 87 1014.2
20260904181026 77 193 7.0 11.0 0.00 0.02 0.02 87 1014.5
20260904180557 77 161 5.0 14.0 0.00 0.02 0.02 87 1014.5
20260904180036 77 163 8.0 17.0 0.00 0.02 0.02 86 1014.5
20260904175530 77 203 8.0 17.0 0.00 0.02 0.02 86 1014.5
20260904175024 77 171 6.0 13.0 0.00 0.02 0.02 85 1014.1
20260904174529 77 121 6.0 13.0 0.00 0.02 0.02 84 1013.8
20260904174022 78 86 5.0 11.0 0.00 0.02 0.02 83 1014.1
20260904173536 79 96 5.0 11.0 0.00 0.02 0.02 83 1014.6
20260904173027 79 167 5.0 9.0 0.00 0.02 0.02 85 1015.4
20260904172524 77 190 5.0 8.0 0.00 0.02 0.02 88 1016.1
20260904172038 76 189 5.0 10.0 0.00 0.02 0.02 86 1016.2
20260904171525 76 175 7.0 13.0 0.00 0.02 0.02 86 1016.3
20260904171035 76 196 5.0 13.0 0.00 0.02 0.02 87 1016.3
20260904170519 76 195 5.0 9.0 0.00 0.02 0.02 89 1015.9
20260904170044 75 135 3.0 8.0 0.00 0.02 0.02 90 1015.9
20260904165556 74 161 2.0 5.0 0.00 0.02 0.02 90 1015.8
20260904165022 73 144 3.0 9.0 0.00 0.02 0.02 91 1015.7
20260904164524 72 81 2.0 10.0 0.00 0.02 0.02 91 1015.6
20260904164021 72 112 4.0 15.0 0.01 0.02 0.02 91 1015.5
20260904163533 72 134 5.0 15.0 0.01 0.02 0.02 90 1015.2
20260904163024 72 153 8.0 15.0 0.01 0.02 0.02 91 1015.0
20260904162537 72 98 7.0 14.0 0.01 0.02 0.02 90 1015.0
20260904162020 72 121 8.0 18.0 0.01 0.02 0.02 90 1015.0
20260904161536 72 103 9.0 18.0 0.01 0.02 0.02 89 1015.1
20260904161051 72 118 6.0 13.0 0.01 0.02 0.02 89 1015.2
20260904160545 72 140 6.0 13.0 0.01 0.02 0.02 89 1015.3
20260904160048 72 113 5.0 13.0 0.01 0.02 0.02 88 1015.5
20260904155519 72 142 6.0 14.0 0.01 0.02 0.02 88 1015.6
20260904155035 73 158 8.0 14.0 0.01 0.02 0.02 87 1015.6
20260904154535 73 128 8.0 17.0 0.01 0.02 0.02 87 1015.8
20260904154026 73 119 9.0 17.0 0.00 0.01 0.01 86 1016.3
20260904153519 73 113 7.0 14.0 0.00 0.01 0.01 87 1017.0
20260904153037 74 128 8.0 14.0 0.00 0.01 0.01 87 1016.6
20260904152532 73 92 5.0 17.0 0.00 0.01 0.01 88 1016.4
20260904152038 73 130 9.0 20.0 0.00 0.01 0.01 88 1016.1
20260904151536 72 114 12.0 20.0 0.00 0.01 0.01 88 1016.2
20260904151030 72 126 11.0 18.0 0.00 0.01 0.01 88 1016.4
20260904150520 72 117 11.0 18.0 0.00 0.01 0.01 88 1016.7
20260904150030 72 109 11.0 17.0 0.00 0.06 0.01 89 1016.6
20260904145537 72 59 9.0 14.0 0.00 0.06 0.01 89 1016.9
20260904145032 72 59 7.0 14.0 0.00 0.06 0.01 90 1016.9
20260904144532 72 85 7.0 14.0 0.00 0.06 0.01 90 1017.0
20260904144025 71 88 6.0 13.0 0.00 0.06 0.01 91 1016.8
20260904143554 71 92 7.0 12.0 0.00 0.06 0.01 91 1016.8
20260904143052 71 70 5.0 13.0 0.00 0.06 0.01 91 1016.6
20260904142527 71 105 7.0 13.0 0.00 0.06 0.01 91 1016.3
20260904142020 71 99 6.0 14.0 0.00 0.06 0.01 91 1016.4
20260904141536 71 82 6.0 16.0 0.00 0.06 0.01 91 1016.2
20260904141025 72 78 7.0 17.0 0.00 0.06 0.01 91 1016.2
20260904140521 72 123 7.0 15.0 0.00 0.06 0.01 91 1015.9
20260904140031 72 69 9.0 15.0 0.00 0.06 0.01 91 1015.9
20260904135526 73 82 7.0 16.0 0.00 0.06 0.01 91 1015.8
20260904135020 73 80 10.0 16.0 0.00 0.06 0.01 91 1016.3
20260904134556 74 48 9.0 18.0 0.00 0.06 0.01 91 1016.3
20260904134030 75 55 10.0 18.0 0.00 0.06 0.01 91 1016.3
20260904133536 75 44 9.0 19.0 0.00 0.06 0.01 92 1016.3
20260904132517 75 49 4.0 15.0 0.00 0.06 0.01 92 1015.6
20260904132036 75 72 4.0 16.0 0.00 0.06 0.01 92 1015.2
20260904131554 75 30 5.0 11.0 0.00 0.06 0.01 92 1015.1
20260904131031 75 291 3.0 17.0 0.00 0.06 0.01 92 1015.0
20260904130527 76 5 11.0 17.0 0.00 0.06 0.01 92 1015.0
20260904130027 76 30 6.0 13.0 0.00 0.06 0.01 92 1014.7
20260904125523 76 198 0.0 0.0 0.00 0.06 0.01 92 1013.8
20260904125033 76 198 0.0 0.0 0.00 0.06 0.01 92 1013.7
20260904124534 76 198 0.0 0.0 0.00 0.06 0.01 92 1013.7
20260904124029 76 198 0.0 0.0 0.00 0.06 0.01 92 1013.8
20260904123520 76 198 0.0 0.0 0.00 0.06 0.01 92 1013.5
20260904123028 76 198 0.0 2.0 0.00 0.06 0.01 92 1013.5
20260904122525 76 198 1.0 4.0 0.00 0.06 0.01 92 1013.3
20260904122035 76 198 2.0 6.0 0.00 0.06 0.01 92 1013.2
20260904121534 76 227 4.0 7.0 0.00 0.06 0.01 92 1013.1
20260904121029 76 211 5.0 7.0 0.00 0.06 0.01 92 1013.1
20260904120547 75 227 4.0 8.0 0.00 0.06 0.01 92 1013.0
20260904120026 75 221 5.0 10.0 0.00 0.06 0.01 92 1013.0
20260904115521 75 206 5.0 10.0 0.00 0.06 0.01 92 1012.9
20260904115032 75 208 6.0 8.0 0.00 0.06 0.01 92 1012.8
20260904114531 75 213 6.0 8.0 0.00 0.06 0.01 92 1012.8
20260904114027 75 218 5.0 8.0 0.00 0.06 0.01 92 1012.7
20260904113521 75 226 6.0 11.0 0.00 0.06 0.01 92 1012.6